Location: Monroe
(41.9160°N, 83.3980°W)
Time: 20:16:52
(UTC-04:00)

ISS - All Passes

Search period start: 24 June 2017 00:00
Search period end: 04 July 2017 00:00
Orbit: 401 x 408 km, 51.6° (Epoch: 25 June)

Date Brightness Start Highest point End Pass type
(mag) Time Alt. Az. Time Alt. Az. Time Alt. Az.
24 Jun - 09:35:53 10° SSW 09:38:46 30° SE 09:41:42 10° ENE daylight
24 Jun - 11:12:08 10° W 11:15:12 36° NNW 11:18:18 10° NE daylight
24 Jun - 12:50:16 10° NW 12:52:23 16° N 12:54:32 10° NNE daylight
24 Jun - 14:27:22 10° NW 14:29:48 19° NNE 14:32:15 10° ENE daylight
24 Jun - 16:03:28 10° NW 16:06:46 66° NNE 16:10:03 10° ESE daylight
24 Jun - 17:40:57 10° W 17:42:54 15° SW 17:44:50 10° SSW daylight
25 Jun - 08:44:40 10° S 08:46:46 16° SE 08:48:53 10° E daylight
25 Jun - 10:19:41 10° WSW 10:22:56 61° NNW 10:26:12 10° NE daylight
25 Jun - 11:57:33 10° WNW 11:59:56 18° NNW 12:02:19 10° NNE daylight
25 Jun - 13:35:11 10° NNW 13:37:21 16° N 13:39:31 10° NE daylight
25 Jun - 15:11:23 10° NW 15:14:30 39° NNE 15:17:38 10° E daylight
25 Jun - 16:48:02 10° WNW 16:50:54 27° SW 16:53:44 10° SSE daylight
26 Jun - 09:27:29 10° SW 09:30:44 74° SE 09:34:00 10° ENE daylight
26 Jun - 11:04:49 10° WNW 11:07:30 23° NNW 11:10:12 10° NE daylight
26 Jun - 12:42:50 10° NW 12:44:51 15° N 12:46:53 10° NE daylight
26 Jun - 14:19:18 10° NW 14:22:09 27° NNE 14:25:02 10° E daylight
26 Jun - 15:55:35 10° WNW 15:58:48 52° SW 16:02:01 10° SE daylight
27 Jun - 08:35:33 10° SSW 08:38:36 37° SE 08:41:40 10° ENE daylight
27 Jun - 10:12:08 10° W 10:15:07 31° NNW 10:18:07 10° NE daylight
27 Jun - 11:50:17 10° NW 11:52:21 15° N 11:54:25 10° NE daylight
27 Jun - 13:27:11 10° NW 13:29:45 20° NNE 13:32:18 10° ENE daylight
27 Jun - 15:03:19 10° NW 15:06:37 82° NE 15:09:55 10° ESE daylight
27 Jun - 16:41:24 10° WSW 16:42:39 12° SW 16:43:54 10° SSW daylight
28 Jun - 07:44:03 10° S 07:46:32 20° SE 07:49:00 10° E daylight
28 Jun - 09:19:36 10° WSW 09:22:47 49° NNW 09:26:00 10° NE daylight
28 Jun - 10:57:34 10° NW 10:59:51 17° N 11:02:07 10° NNE daylight
28 Jun - 12:35:01 10° NNW 12:37:16 17° N 12:39:31 10° NE daylight
28 Jun - 14:11:09 10° NW 14:14:21 46° NNE 14:17:33 10° ESE daylight
28 Jun - 15:48:02 10° W 15:50:38 22° SW 15:53:15 10° S daylight
29 Jun - 06:53:47 10° SE 06:54:31 11° SE 06:55:15 10° ESE daylight
29 Jun - 08:27:15 10° SW 08:30:31 89° NW 08:33:49 10° NE daylight
29 Jun - 10:04:47 10° WNW 10:07:21 21° NNW 10:09:57 10° NE daylight
29 Jun - 11:42:42 10° NW 11:44:45 15° N 11:46:47 10° NE daylight
29 Jun - 13:19:01 10° NW 13:22:00 30° NNE 13:24:57 10° E daylight
29 Jun - 14:55:25 10° WNW 14:58:32 41° SW 15:01:39 10° SSE daylight
30 Jun - 07:35:10 10° SW 07:38:18 47° SE 07:41:29 10° ENE daylight
30 Jun - 09:12:02 10° W 09:14:55 28° NNW 09:17:48 10° NE daylight
30 Jun - 10:50:11 10° NW 10:52:12 15° N 10:54:13 10° NE daylight
30 Jun - 12:26:54 10° NW 12:29:34 22° NNE 12:32:13 10° ENE daylight
30 Jun - 14:03:04 10° WNW 14:06:21 80° SW 14:09:38 10° SE daylight
01 Jul - 06:43:27 10° SSW 06:46:10 25° SE 06:48:55 10° ENE daylight
01 Jul - 08:19:24 10° W 08:22:31 41° NNW 08:25:40 10° NE daylight
01 Jul - 09:57:28 10° NW 09:59:38 16° N 10:01:49 10° NNE daylight
01 Jul - 11:34:43 10° NNW 11:37:04 18° NNE 11:39:24 10° ENE daylight
01 Jul - 13:10:49 10° NW 13:14:04 56° NNE 13:17:19 10° ESE daylight
01 Jul - 14:47:59 10° W 14:50:16 18° SW 14:52:33 10° S daylight
02 Jul - 05:52:26 10° SSE 05:54:06 13° SE 05:55:46 10° E daylight
02 Jul - 07:26:56 10° WSW 07:30:11 72° NNW 07:33:28 10° NE daylight
02 Jul - 09:04:39 10° WNW 09:07:06 19° NNW 09:09:34 10° NE daylight
02 Jul - 10:42:25 10° NNW 10:44:31 16° N 10:46:36 10° NE daylight
02 Jul - 12:18:39 10° NW 12:21:42 34° NNE 12:24:45 10° E daylight
02 Jul - 13:55:10 10° WNW 13:58:09 32° SW 14:01:08 10° SSE daylight
03 Jul - 06:34:42 10° SW 06:37:55 60° SE 06:41:09 10° ENE daylight
03 Jul - 08:11:51 10° WNW 08:14:36 25° NNW 08:17:23 10° NE daylight
03 Jul - 09:49:56 10° NW 09:51:56 15° N 09:53:56 10° NE daylight
03 Jul - 11:26:29 10° NW 11:29:15 24° NNE 11:32:01 10° ENE daylight
03 Jul - 13:02:42 10° WNW 13:05:58 63° SW 13:09:12 10° SE daylight
